Location: Melbourne
(37.8170°S, 144.9670°E)
Time: 19:27:37
(UTC+11:00)

Explorer 11/Cluster Stage 4 - Visible Passes

Search period start: 24 October 2014 00:00
Search period end: 03 November 2014 00:00
Orbit: 468 x 1281 km, 28.8° (Epoch: 23 October)

Date Brightness Start Highest point End Pass type
(mag) Time Alt. Az. Time Alt. Az. Time Alt. Az.
31 Oct 9.7 05:22:36 10° NNE 05:24:07 11° NNE 05:25:37 10° NE visible
01 Nov 9.5 05:13:07 10° N 05:16:36 13° NNE 05:20:06 10° NE visible
02 Nov 9.4 05:04:35 10° N 05:09:05 16° NNE 05:13:38 10° ENE visible
